Weather History for Chamberlain, SD

Change the Weather History Date:

Saturday, March 1, 2014

  Actual Average Record
Temperature  
Mean Temperature 0 °F -  
Max Temperature 7 °F 31 °F 57 °F (1999)
Min Temperature -13 °F 14 °F -14 °F (2009)
Degree Days  
Heating Degree Days 66    
Moisture  
Dew Point -10 °F    
Average Humidity 69    
Maximum Humidity 76    
Minimum Humidity 60    
Precipitation  
Precipitation 0.22 in - - ()
Sea Level Pressure  
Sea Level Pressure 30.57 in    
Wind  
Wind Speed 12 mph (North)    
Max Wind Speed 16 mph    
Max Gust Speed -    
Averages and records for this station are not official NWS values.
T = Trace of Precipitation, MM = Missing Value Source: NWS Daily Summary

Daily Weather History Graph

Daily Weather History Graph

Search for Another Location

Airport:

Trip Planner

Search our weather history database for the weather conditions in past years. The results will help you decide how hot, cold, wet, or windy it might be!

Date:

Astronomy

Mar. 01, 2014 Rise Set
Actual Time 7:13 AM CST 6:25 PM CST
Civil Twilight 6:45 AM CST 6:54 PM CST
Nautical Twilight 6:11 AM CST 7:28 PM CST
Astronomical Twilight 5:38 AM CST 8:01 PM CST
Moon 7:06 AM CST (3/1) 7:18 PM CST (3/1)
Length of Visible Light 12h 09m
Length of Day
11h 12m
New Moon, 0% of the Moon is Illuminated
Mar 1
New Moon
Mar 8
First Quarter
Mar 16
Full
Mar 23
Last Quarter
Mar 30
New

Hourly Weather History & Observations

Time (CST) Temp. Windchill Dew Point Humidity Pressure Visibility Wind Dir Wind Speed Gust Speed Precip Events Conditions
12:52 AM 7.0 °F -9.1 °F -2.9 °F 64% 30.38 in - NNE 12.7 mph - N/A   Unknown
1:52 AM 6.1 °F -11.6 °F -2.9 °F 67% 30.39 in - NNE 15.0 mph - N/A   Unknown
2:52 AM 5.0 °F -12.3 °F -5.1 °F 63% 30.39 in - NNE 13.8 mph - N/A   Unknown
3:52 AM 3.9 °F -13.0 °F -2.9 °F 73% 30.42 in - NNE 12.7 mph - N/A   Unknown
4:52 AM 1.9 °F -16.2 °F -5.1 °F 72% 30.44 in - NNE 13.8 mph - 0.01 in   Unknown
5:52 AM -0.0 °F -17.1 °F -6.0 °F 76% 30.48 in - NNE 11.5 mph - 0.02 in   Unknown
6:52 AM -0.9 °F -16.4 °F -7.1 °F 75% 30.51 in - NNE 9.2 mph - 0.04 in   Unknown
7:52 AM -0.9 °F -17.4 °F -7.1 °F 75% 30.53 in - NNE 10.4 mph - 0.02 in   Unknown
8:52 AM -0.9 °F -18.3 °F -8.0 °F 72% 30.56 in - NNE 11.5 mph - 0.02 in   Unknown
9:52 AM -0.0 °F -17.1 °F -8.0 °F 69% 30.59 in - NNE 11.5 mph - N/A   Unknown
10:52 AM -0.0 °F -15.3 °F -7.1 °F 72% 30.60 in - North 9.2 mph - 0.01 in   Unknown
11:52 AM -0.9 °F -21.2 °F -9.0 °F 69% 30.60 in - NNE 16.1 mph - 0.03 in   Unknown
12:52 PM -0.9 °F -18.3 °F -11.0 °F 62% 30.62 in - NNE 11.5 mph - 0.01 in   Unknown
1:52 PM -2.0 °F -21.9 °F -13.0 °F 60% 30.61 in - NNE 15.0 mph - 0.01 in   Unknown
2:52 PM -2.9 °F -18.8 °F -11.9 °F 65% 30.60 in - North 9.2 mph - N/A   Unknown
3:52 PM -4.0 °F -23.0 °F -11.0 °F 72% 30.63 in - North 12.7 mph - 0.03 in   Unknown
4:52 PM -5.1 °F -23.5 °F -11.9 °F 72% 30.64 in - NNE 11.5 mph - 0.01 in   Unknown
5:52 PM -5.1 °F -22.5 °F -14.1 °F 65% 30.64 in - North 10.4 mph - N/A   Unknown
6:52 PM -7.1 °F -19.9 °F -13.0 °F 75% 30.66 in - North 5.8 mph - N/A   Unknown
7:52 PM -6.0 °F -20.1 °F -15.0 °F 65% 30.68 in - North 6.9 mph - 0.01 in   Unknown
8:52 PM -8.0 °F -21.0 °F -15.0 °F 71% 30.70 in - NNW 5.8 mph - N/A   Unknown
9:52 PM -7.1 °F -22.8 °F -16.1 °F 65% 30.71 in - NNW 8.1 mph - N/A   Unknown
10:52 PM -8.0 °F -21.0 °F -17.0 °F 65% 30.69 in - North 5.8 mph - N/A   Unknown
11:52 PM -13.0 °F -22.7 °F -18.9 °F 75% 30.71 in - NW 3.5 mph - N/A   Unknown